• în România
  • Lista ţărilor
  • Pe 7 zile
  • Temperatura apei
  • Hartă satelitară
  • Meteo pe hartă
  • Widget-uri
  • user-avatar
    Intrare

    Meteo pe oră la Hodykino

    Astăzi, 19 Septembrie, Miercuri

    Timp Temperatura Precipitaţii Vânt Presiune Umiditate
    00:00 +9°C° 0 mm 2 m/s 747 mmHg 93%
    01:00 +9°C° 0 mm 2 m/s 748 mmHg 94%
    02:00 +9°C° 0 mm 2 m/s 748 mmHg 94%
    03:00 +9°C° 0 mm 2 m/s 748 mmHg 94%
    04:00 +9°C° 0 mm 2 m/s 748 mmHg 94%
    05:00 +8°C° 0 mm 2 m/s 748 mmHg 94%
    06:00 +10°C° 0 mm 3 m/s 748 mmHg 89%
    07:00 +12°C° 0 mm 3 m/s 748 mmHg 83%
    08:00 +13°C° 0 mm 3 m/s 748 mmHg 78%
    09:00 +15°C° 0 mm 4 m/s 748 mmHg 73%
    10:00 +18°C° 0 mm 4 m/s 748 mmHg 68%
    11:00 +20°C° 0 mm 5 m/s 747 mmHg 63%
    12:00 +21°C° 0 mm 5 m/s 747 mmHg 61%
    13:00 +22°C° 0 mm 5 m/s 747 mmHg 59%
    14:00 +23°C° 0 mm 5 m/s 747 mmHg 57%
    15:00 +22°C° 0 mm 5 m/s 746 mmHg 62%
    16:00 +21°C° 0 mm 4 m/s 746 mmHg 67%
    17:00 +20°C° 0 mm 3 m/s 746 mmHg 72%
    18:00 +18°C° 0 mm 3 m/s 746 mmHg 77%
    19:00 +17°C° 0 mm 3 m/s 746 mmHg 82%
    20:00 +16°C° 0 mm 3 m/s 746 mmHg 86%
    21:00 +16°C° 0 mm 3 m/s 746 mmHg 89%
    22:00 +14°C° 0 mm 3 m/s 746 mmHg 91%
    23:00 +14°C° 0 mm 3 m/s 746 mmHg 93%

    Mâine, 20 Septembrie, Joi

    Timp Temperatura Precipitaţii Vânt Presiune Umiditate
    00:00 +14°C° 0 mm 3 m/s 746 mmHg 94%
    01:00 +14°C° 0 mm 3 m/s 747 mmHg 94%
    02:00 +14°C° 0 mm 3 m/s 747 mmHg 95%
    03:00 +13°C° 0 mm 3 m/s 746 mmHg 95%
    04:00 +13°C° 0 mm 3 m/s 746 mmHg 95%
    05:00 +13°C° 0 mm 3 m/s 746 mmHg 96%
    06:00 +14°C° 0 mm 3 m/s 746 mmHg 92%
    07:00 +17°C° 0 mm 3 m/s 746 mmHg 88%
    08:00 +18°C° 0 mm 4 m/s 747 mmHg 84%
    09:00 +20°C° 0 mm 4 m/s 747 mmHg 77%
    10:00 +21°C° 0 mm 4 m/s 747 mmHg 71%
    11:00 +23°C° 0 mm 4 m/s 747 mmHg 65%
    12:00 +25°C° 0 mm 4 m/s 746 mmHg 63%
    13:00 +25°C° 0 mm 4 m/s 746 mmHg 61%
    14:00 +26°C° 0 mm 4 m/s 746 mmHg 59%
    15:00 +23°C° 0 mm 4 m/s 746 mmHg 64%
    16:00 +22°C° 0 mm 3 m/s 746 mmHg 69%
    17:00 +21°C° 0 mm 2 m/s 747 mmHg 74%
    18:00 +20°C° 0 mm 2 m/s 747 mmHg 79%
    19:00 +18°C° 0 mm 2 m/s 747 mmHg 84%
    20:00 +17°C° 0 mm 2 m/s 747 mmHg 88%
    21:00 +16°C° 0 mm 2 m/s 747 mmHg 89%
    22:00 +16°C° 0 mm 1 m/s 748 mmHg 90%
    23:00 +15°C° 0 mm 1 m/s 748 mmHg 91%

    Poimâine, 21 Septembrie, Vineri

    Timp Temperatura Precipitaţii Vânt Presiune Umiditate
    00:00 +15°C° 0 mm 1 m/s 748 mmHg 91%
    01:00 +14°C° 0 mm 1 m/s 748 mmHg 92%
    02:00 +14°C° 0 mm 1 m/s 748 mmHg 92%
    03:00 +14°C° 0 mm 1 m/s 748 mmHg 92%
    04:00 +14°C° 0 mm 1 m/s 749 mmHg 93%
    05:00 +13°C° 0 mm 1 m/s 749 mmHg 93%
    06:00 +15°C° 0 mm 1 m/s 749 mmHg 88%
    07:00 +16°C° 0 mm 1 m/s 749 mmHg 83%
    08:00 +19°C° 0 mm 1 m/s 750 mmHg 78%
    09:00 +20°C° 0 mm 1 m/s 750 mmHg 72%
    10:00 +22°C° 0 mm 1 m/s 750 mmHg 65%
    11:00 +24°C° 0 mm 1 m/s 750 mmHg 59%
    12:00 +24°C° 0 mm 1 m/s 750 mmHg 56%
    13:00 +25°C° 0 mm 1 m/s 750 mmHg 53%
    14:00 +25°C° 0 mm 1 m/s 750 mmHg 50%
    15:00 +24°C° 0 mm 1 m/s 749 mmHg 55%
    16:00 +23°C° 0 mm 1 m/s 749 mmHg 60%
    17:00 +22°C° 0 mm 1 m/s 749 mmHg 65%
    18:00 +20°C° 0 mm 1 m/s 749 mmHg 68%
    19:00 +19°C° 0 mm 1 m/s 749 mmHg 71%
    20:00 +17°C° 0 mm 2 m/s 749 mmHg 74%
    21:00 +17°C° 0 mm 2 m/s 749 mmHg 75%
    22:00 +16°C° 0 mm 2 m/s 749 mmHg 76%
    23:00 +16°C° 0 mm 2 m/s 749 mmHg 77%

    22 Septembrie, Sâmbătă

    Timp Temperatura Precipitaţii Vânt Presiune Umiditate
    00:00 +15°C° 0 mm 2 m/s 749 mmHg 79%
    01:00 +15°C° 0 mm 2 m/s 749 mmHg 80%
    02:00 +15°C° 0 mm 2 m/s 749 mmHg 82%
    03:00 +15°C° 0 mm 2 m/s 749 mmHg 83%
    04:00 +15°C° 0 mm 2 m/s 749 mmHg 84%
    05:00 +15°C° 0 mm 2 m/s 748 mmHg 86%
    06:00 +16°C° 0 mm 3 m/s 748 mmHg 81%
    07:00 +18°C° 0 mm 3 m/s 748 mmHg 77%
    08:00 +19°C° 0 mm 4 m/s 748 mmHg 72%
    09:00 +21°C° 0 mm 4 m/s 748 mmHg 67%
    10:00 +22°C° 0 mm 4 m/s 748 mmHg 62%
    11:00 +25°C° 0 mm 5 m/s 747 mmHg 56%
    12:00 +25°C° 0 mm 5 m/s 747 mmHg 54%
    13:00 +26°C° 0 mm 5 m/s 747 mmHg 52%
    14:00 +26°C° 0 mm 5 m/s 746 mmHg 51%
    15:00 +25°C° 0 mm 4 m/s 746 mmHg 56%
    16:00 +23°C° 0 mm 4 m/s 746 mmHg 62%
    17:00 +21°C° 0 mm 3 m/s 745 mmHg 67%
    18:00 +20°C° 0 mm 3 m/s 745 mmHg 70%
    19:00 +19°C° 0 mm 3 m/s 745 mmHg 72%
    20:00 +18°C° 0 mm 3 m/s 745 mmHg 74%
    21:00 +18°C° 0 mm 3 m/s 745 mmHg 74%
    22:00 +18°C° 0 mm 3 m/s 745 mmHg 73%
    23:00 +17°C° 0 mm 4 m/s 744 mmHg 72%

    23 Septembrie, Duminică

    Timp Temperatura Precipitaţii Vânt Presiune Umiditate
    00:00 +17°C° 0 mm 3 m/s 744 mmHg 73%
    01:00 +17°C° 0 mm 3 m/s 744 mmHg 74%
    02:00 +16°C° 0 mm 3 m/s 744 mmHg 74%
    03:00 +16°C° 0 mm 3 m/s 744 mmHg 76%
    04:00 +14°C° 0 mm 3 m/s 744 mmHg 78%
    05:00 +15°C° 0 mm 2 m/s 743 mmHg 79%
    06:00 +16°C° 0 mm 2 m/s 743 mmHg 76%
    07:00 +17°C° 0 mm 2 m/s 743 mmHg 74%
    08:00 +18°C° 0 mm 2 m/s 743 mmHg 71%
    09:00 +19°C° 0 mm 3 m/s 743 mmHg 67%
    10:00 +20°C° 0 mm 3 m/s 743 mmHg 63%
    11:00 +21°C° 0 mm 4 m/s 743 mmHg 58%
    12:00 +21°C° 0 mm 3 m/s 742 mmHg 61%
    13:00 +20°C° 0 mm 3 m/s 742 mmHg 64%
    14:00 +20°C° 0 mm 3 m/s 742 mmHg 68%
    15:00 +18°C° 0.2 mm 4 m/s 742 mmHg 73%
    16:00 +15°C° 0.2 mm 4 m/s 742 mmHg 79%
    17:00 +13°C° 0.2 mm 5 m/s 742 mmHg 85%
    18:00 +12°C° 0.3 mm 5 m/s 743 mmHg 86%
    19:00 +10°C° 0.3 mm 5 m/s 743 mmHg 87%
    20:00 +9°C° 0.3 mm 5 m/s 743 mmHg 88%
    21:00 +9°C° 0.1 mm 5 m/s 744 mmHg 88%
    22:00 +9°C° 0.1 mm 5 m/s 744 mmHg 87%
    23:00 +8°C° 0.1 mm 5 m/s 744 mmHg 87%

    24 Septembrie, Luni

    Timp Temperatura Precipitaţii Vânt Presiune Umiditate
    00:00 +8°C° 0 mm 4 m/s 745 mmHg 88%
    01:00 +7°C° 0 mm 4 m/s 745 mmHg 89%
    02:00 +8°C° 0 mm 3 m/s 745 mmHg 90%
    03:00 +8°C° 0 mm 3 m/s 745 mmHg 91%
    04:00 +7°C° 0 mm 3 m/s 745 mmHg 92%
    05:00 +7°C° 0 mm 3 m/s 746 mmHg 92%
    06:00 +8°C° 0 mm 3 m/s 746 mmHg 89%
    07:00 +9°C° 0 mm 3 m/s 746 mmHg 85%
    08:00 +10°C° 0 mm 3 m/s 746 mmHg 81%
    09:00 +11°C° 0 mm 3 m/s 746 mmHg 76%
    10:00 +13°C° 0 mm 3 m/s 746 mmHg 71%
    11:00 +14°C° 0 mm 3 m/s 746 mmHg 66%
    12:00 +16°C° 0 mm 3 m/s 746 mmHg 66%
    13:00 +16°C° 0 mm 3 m/s 746 mmHg 66%
    14:00 +17°C° 0 mm 3 m/s 745 mmHg 66%
    15:00 +16°C° 0 mm 2 m/s 745 mmHg 71%
    16:00 +16°C° 0 mm 2 m/s 745 mmHg 75%
    17:00 +15°C° 0 mm 2 m/s 744 mmHg 80%
    18:00 +14°C° 0 mm 2 m/s 744 mmHg 85%
    19:00 +13°C° 0 mm 2 m/s 744 mmHg 89%
    20:00 +13°C° 0 mm 2 m/s 744 mmHg 94%
    21:00 +12°C° 0 mm 1 m/s 744 mmHg 94%
    22:00 +12°C° 0 mm 1 m/s 744 mmHg 95%
    23:00 +12°C° 0 mm 1 m/s 744 mmHg 95%
    Arată mai mult